TDRS 10

Last updated on Wed Sep 17 2025 00:02:40 GMT+0000 (Coordinated Universal Time)

1 27566U 02055A 25259.58555203 -.00000160 00000+0 00000+0 0 9990 2 27566 9.5403 45.0310 0013012 222.3684 308.5404 0.98864169 83495
UTC large
Height (km)
Speed (km/s)
/
Latitude / Longitude
Inclination (degrees)
Orbital Period (minutes)
Azimuth
Elevation
Range (km)
Doppler Factor

Next 0 passes for location: London (51.5072 / 0.1276)

Sorry there are no passes over London.